| time (UTC) | temp F | wind direction | speed knots | gust knots | rain 1hr in | rain 24hr in | rain mn in | humidity % | barometer mb |
| 20260906122409 | 69 | 22 | 0.9 | 4.3 | 0.00 | 0.00 | 0.00 | 56 | 950.0 |
| 20260906121905 | 70 | 338 | 0.0 | 4.3 | 0.00 | 0.00 | 0.00 | 56 | 950.0 |
| 20260906121405 | 69 | 22 | 0.0 | 4.3 | 0.00 | 0.00 | 0.00 | 56 | 950.0 |
| 20260906120904 | 69 | 45 | 1.7 | 5.2 | 0.00 | 0.00 | 0.00 | 58 | 950.0 |
| 20260906120405 | 69 | 22 | 2.6 | 5.2 | 0.00 | 0.00 | 0.00 | 59 | 950.0 |
| 20260906115921 | 68 | 0 | 1.7 | 5.2 | 0.00 | 0.00 | 0.00 | 61 | 950.0 |
| 20260906115405 | 68 | 22 | 1.7 | 2.6 | 0.00 | 0.00 | 0.00 | 62 | 950.0 |
| 20260906114914 | 67 | 0 | 1.7 | 2.6 | 0.00 | 0.00 | 0.00 | 62 | 950.0 |
| 20260906114405 | 67 | 338 | 0.0 | 0.0 | 0.00 | 0.00 | 0.00 | 62 | 950.0 |
| 20260906113905 | 67 | 338 | 0.0 | 0.0 | 0.00 | 0.00 | 0.00 | 62 | 950.0 |
| 20260906113432 | 67 | 338 | 0.0 | 0.0 | 0.00 | 0.00 | 0.00 | 61 | 950.0 |
| 20260906112904 | 69 | 338 | 0.0 | 4.3 | 0.00 | 0.00 | 0.00 | 59 | 950.0 |
| 20260906112424 | 70 | 338 | 0.0 | 4.3 | 0.00 | 0.00 | 0.00 | 59 | 950.0 |
| 20260906111904 | 72 | 338 | 4.3 | 4.3 | 0.00 | 0.00 | 0.00 | 60 | 950.0 |
| 20260906111409 | 72 | 22 | 1.7 | 3.5 | 0.00 | 0.00 | 0.00 | 62 | 950.0 |
| 20260906110904 | 72 | 0 | 0.0 | 1.7 | 0.00 | 0.00 | 0.00 | 66 | 950.0 |
| 20260906110405 | 72 | 0 | 0.0 | 0.0 | 0.00 | 0.00 | 0.00 | 67 | 950.0 |
| 20260906105905 | 71 | 315 | 0.0 | 0.0 | 0.00 | 0.00 | 0.00 | 70 | 950.0 |
| 20260906105404 | 70 | 315 | 0.0 | 0.0 | 0.00 | 0.00 | 0.00 | 71 | 950.0 |
| 20260906104920 | 70 | 338 | 0.0 | 0.0 | 0.00 | 0.00 | 0.00 | 72 | 950.0 |
| 20260906104405 | 69 | 338 | 0.0 | 0.0 | 0.00 | 0.00 | 0.00 | 73 | 950.0 |
| 20260906103912 | 68 | 338 | 0.0 | 0.0 | 0.00 | 0.00 | 0.00 | 74 | 950.0 |
| 20260906103404 | 67 | 338 | 0.0 | 0.0 | 0.00 | 0.00 | 0.00 | 77 | 950.0 |
| 20260906102905 | 66 | 338 | 0.0 | 0.0 | 0.00 | 0.00 | 0.00 | 77 | 950.0 |
| 20260906102430 | 65 | 338 | 0.0 | 0.0 | 0.00 | 0.00 | 0.00 | 78 | 950.0 |
| 20260906101905 | 63 | 338 | 0.0 | 0.0 | 0.00 | 0.00 | 0.00 | 78 | 950.0 |
| 20260906101424 | 61 | 338 | 0.0 | 0.0 | 0.00 | 0.00 | 0.00 | 78 | 950.0 |
| 20260906100905 | 61 | 338 | 0.0 | 0.0 | 0.00 | 0.00 | 0.00 | 78 | 950.0 |
| 20260906100406 | 61 | 0 | 0.0 | 0.0 | 0.00 | 0.00 | 0.00 | 78 | 950.0 |
| 20260906095904 | 61 | 0 | 0.0 | 0.0 | 0.00 | 0.00 | 0.00 | 78 | 950.0 |
| 20260906095404 | 60 | 0 | 0.0 | 0.0 | 0.00 | 0.00 | 0.00 | 78 | 950.0 |
| 20260906094905 | 60 | 0 | 0.0 | 0.0 | 0.00 | 0.00 | 0.00 | 77 | 950.0 |
| 20260906094405 | 59 | 0 | 0.0 | 0.0 | 0.00 | 0.00 | 0.00 | 77 | 950.0 |
| 20260906093916 | 59 | 0 | 0.0 | 0.0 | 0.00 | 0.00 | 0.00 | 76 | 950.0 |
| 20260906093403 | 58 | 0 | 0.0 | 0.0 | 0.00 | 0.00 | 0.00 | 76 | 950.0 |
| 20260906092905 | 58 | 0 | 0.0 | 0.0 | 0.00 | 0.00 | 0.00 | 75 | 950.0 |
| 20260906092403 | 59 | 0 | 0.0 | 0.0 | 0.00 | 0.00 | 0.00 | 75 | 950.0 |
| 20260906091905 | 59 | 0 | 0.0 | 1.7 | 0.00 | 0.00 | 0.00 | 74 | 950.0 |
| 20260906091427 | 60 | 0 | 0.0 | 2.6 | 0.00 | 0.00 | 0.00 | 73 | 950.0 |
| 20260906090904 | 61 | 0 | 1.7 | 2.6 | 0.00 | 0.00 | 0.00 | 72 | 950.0 |
| 20260906090412 | 62 | 0 | 0.0 | 2.6 | 0.00 | 0.00 | 0.00 | 71 | 950.0 |
| 20260906085905 | 62 | 22 | 2.6 | 4.3 | 0.00 | 0.00 | 0.00 | 71 | 950.0 |
| 20260906085404 | 63 | 338 | 0.0 | 4.3 | 0.00 | 0.00 | 0.00 | 72 | 950.0 |
| 20260906084904 | 63 | 315 | 0.0 | 4.3 | 0.00 | 0.00 | 0.00 | 72 | 950.0 |
| 20260906084405 | 63 | 22 | 0.0 | 5.2 | 0.00 | 0.00 | 0.00 | 72 | 950.0 |
| 20260906083921 | 63 | 0 | 1.7 | 5.2 | 0.00 | 0.00 | 0.00 | 73 | 950.0 |
| 20260906083406 | 63 | 22 | 0.0 | 5.2 | 0.00 | 0.00 | 0.00 | 73 | 950.0 |
| 20260906082916 | 63 | 22 | 1.7 | 1.7 | 0.00 | 0.00 | 0.00 | 74 | 950.0 |
| 20260906082406 | 62 | 22 | 0.0 | 0.9 | 0.00 | 0.00 | 0.00 | 74 | 950.0 |
| 20260906081905 | 62 | 22 | 0.0 | 0.9 | 0.00 | 0.00 | 0.00 | 74 | 950.0 |
| 20260906081431 | 62 | 22 | 0.0 | 0.0 | 0.00 | 0.00 | 0.00 | 74 | 950.0 |
| 20260906080906 | 61 | 22 | 0.0 | 0.0 | 0.00 | 0.00 | 0.00 | 73 | 950.0 |
| 20260906080424 | 61 | 22 | 0.0 | 0.0 | 0.00 | 0.00 | 0.00 | 72 | 950.0 |
| 20260906075906 | 62 | 22 | 0.0 | 0.0 | 0.00 | 0.00 | 0.00 | 71 | 950.0 |
| 20260906075407 | 63 | 22 | 0.0 | 3.5 | 0.00 | 0.00 | 0.00 | 70 | 950.0 |
| 20260906074906 | 64 | 22 | 0.0 | 3.5 | 0.00 | 0.00 | 0.00 | 70 | 950.0 |
| 20260906074406 | 64 | 22 | 0.0 | 3.5 | 0.00 | 0.00 | 0.00 | 70 | 950.0 |
| 20260906073905 | 64 | 0 | 0.0 | 2.6 | 0.00 | 0.00 | 0.00 | 70 | 950.0 |
| 20260906073406 | 64 | 0 | 0.0 | 2.6 | 0.00 | 0.00 | 0.00 | 71 | 950.0 |
| 20260906072919 | 64 | 0 | 2.6 | 2.6 | 0.00 | 0.00 | 0.00 | 72 | 950.0 |
| 20260906072417 | 64 | 0 | 0.0 | 0.0 | 0.00 | 0.00 | 0.00 | 72 | 950.0 |
| 20260906071914 | 65 | 0 | 0.0 | 0.0 | 0.00 | 0.00 | 0.00 | 72 | 950.0 |
| 20260906071407 | 65 | 0 | 0.0 | 0.0 | 0.00 | 0.00 | 0.00 | 73 | 950.0 |
| 20260906070906 | 65 | 0 | 0.0 | 1.7 | 0.00 | 0.00 | 0.00 | 74 | 950.0 |
| 20260906070431 | 65 | 0 | 0.0 | 1.7 | 0.00 | 0.00 | 0.00 | 75 | 950.0 |
| 20260906065930 | 65 | 0 | 1.7 | 1.7 | 0.00 | 0.00 | 0.00 | 76 | 950.0 |
| 20260906065424 | 65 | 0 | 0.0 | 0.0 | 0.00 | 0.00 | 0.00 | 77 | 950.0 |
| 20260906064906 | 64 | 0 | 0.0 | 0.0 | 0.00 | 0.00 | 0.00 | 77 | 949.0 |
| 20260906064409 | 64 | 0 | 0.0 | 0.0 | 0.00 | 0.00 | 0.00 | 78 | 949.0 |
| 20260906063907 | 64 | 0 | 0.0 | 0.0 | 0.00 | 0.00 | 0.00 | 79 | 949.0 |
| 20260906063442 | 63 | 0 | 0.0 | 0.0 | 0.00 | 0.00 | 0.00 | 80 | 949.0 |
| 20260906062907 | 63 | 0 | 0.0 | 0.0 | 0.00 | 0.00 | 0.00 | 80 | 949.0 |
| 20260906062407 | 63 | 0 | 0.0 | 0.0 | 0.00 | 0.00 | 0.00 | 81 | 949.0 |
| 20260906061921 | 62 | 0 | 0.0 | 0.0 | 0.00 | 0.00 | 0.00 | 82 | 949.0 |
| 20260906061407 | 62 | 0 | 0.0 | 0.0 | 0.00 | 0.00 | 0.00 | 82 | 949.0 |
| 20260906060952 | 62 | 0 | 0.0 | 0.0 | 0.00 | 0.00 | 0.00 | 83 | 949.0 |
| 20260906060407 | 61 | 0 | 0.0 | 0.0 | 0.00 | 0.00 | 0.00 | 84 | 949.0 |
| 20260906055908 | 61 | 0 | 0.0 | 0.0 | 0.00 | 0.00 | 0.00 | 84 | 949.0 |
| 20260906055432 | 61 | 0 | 0.0 | 0.0 | 0.00 | 0.00 | 0.00 | 84 | 949.0 |
| 20260906054906 | 60 | 0 | 0.0 | 0.0 | 0.00 | 9.83 | 0.00 | 85 | 949.0 |
| 20260906054505 | 60 | 0 | 0.0 | 0.0 | 0.00 | 0.00 | 0.00 | 85 | 949.0 |
| 20260906053908 | 59 | 0 | 0.0 | 0.0 | 0.00 | 0.00 | 0.00 | 85 | 949.0 |
| 20260906053410 | 59 | 0 | 0.0 | 0.0 | 0.00 | 0.00 | 0.00 | 85 | 949.0 |
| 20260906052908 | 58 | 0 | 0.0 | 0.0 | 0.00 | 0.00 | 0.00 | 86 | 949.0 |
| 20260906052408 | 58 | 0 | 0.0 | 0.0 | 0.00 | 0.00 | 0.00 | 86 | 949.0 |
| 20260906051907 | 58 | 0 | 0.0 | 0.0 | 0.00 | 0.00 | 0.00 | 86 | 949.0 |
| 20260906051408 | 58 | 0 | 0.0 | 0.0 | 0.00 | 0.00 | 0.00 | 86 | 949.0 |
| 20260906050920 | 58 | 0 | 0.0 | 0.0 | 0.00 | 0.00 | 0.00 | 86 | 949.0 |
| 20260906050409 | 58 | 0 | 0.0 | 0.0 | 0.00 | 0.00 | 0.00 | 86 | 949.0 |
| 20260906045907 | 58 | 0 | 0.0 | 0.0 | 0.00 | 0.00 | 0.00 | 86 | 949.0 |
| 20260906045409 | 57 | 0 | 0.0 | 0.0 | 0.00 | 0.00 | 0.00 | 87 | 949.0 |
| 20260906044908 | 57 | 0 | 0.0 | 0.0 | 0.00 | 0.00 | 0.00 | 87 | 949.0 |
| 20260906044430 | 56 | 0 | 0.0 | 0.0 | 0.00 | 0.00 | 0.00 | 87 | 949.0 |
| 20260906043908 | 56 | 0 | 0.0 | 0.0 | 0.00 | 0.00 | 0.00 | 87 | 949.0 |
| 20260906043414 | 56 | 0 | 0.0 | 0.0 | 0.00 | 0.00 | 0.00 | 87 | 949.0 |
| 20260906042909 | 56 | 0 | 0.0 | 0.0 | 0.00 | 0.00 | 0.00 | 87 | 949.0 |
| 20260906042409 | 56 | 0 | 0.0 | 0.0 | 0.00 | 0.00 | 0.00 | 87 | 949.0 |
| 20260906041909 | 56 | 0 | 0.0 | 0.0 | 0.00 | 0.00 | 0.00 | 87 | 949.0 |
| 20260906041410 | 55 | 0 | 0.0 | 0.0 | 0.00 | 0.00 | 0.00 | 87 | 949.0 |
| 20260906040926 | 55 | 0 | 0.0 | 0.0 | 0.00 | 0.00 | 0.00 | 87 | 949.0 |
| 20260906040408 | 55 | 0 | 0.0 | 0.0 | 0.00 | 0.00 | 0.00 | 87 | 949.0 |
| 20260906035919 | 55 | 0 | 0.0 | 0.0 | 0.00 | 0.00 | 0.00 | 87 | 949.0 |
| 20260906035408 | 55 | 0 | 0.0 | 0.0 | 0.00 | 0.00 | 0.00 | 87 | 949.0 |
| 20260906034909 | 54 | 0 | 0.0 | 0.0 | 0.00 | 0.00 | 0.00 | 87 | 949.0 |
| 20260906034436 | 54 | 0 | 0.0 | 0.0 | 0.00 | 0.00 | 0.00 | 87 | 949.0 |
| 20260906033909 | 54 | 0 | 0.0 | 0.0 | 0.00 | 0.00 | 0.00 | 87 | 948.0 |
| 20260906033430 | 54 | 0 | 0.0 | 0.0 | 0.00 | 0.00 | 0.00 | 87 | 948.0 |
| 20260906032909 | 54 | 0 | 0.0 | 0.0 | 0.00 | 0.00 | 0.00 | 87 | 948.0 |
| 20260906032413 | 54 | 0 | 0.0 | 0.0 | 0.00 | 0.00 | 0.00 | 87 | 949.0 |
| 20260906031909 | 54 | 0 | 0.0 | 0.9 | 0.00 | 0.00 | 0.00 | 87 | 948.0 |
| 20260906031410 | 53 | 0 | 0.0 | 0.9 | 0.00 | 0.00 | 0.00 | 87 | 949.0 |
| 20260906030909 | 54 | 0 | 0.0 | 0.9 | 0.00 | 0.00 | 0.00 | 87 | 949.0 |
| 20260906030409 | 54 | 0 | 0.0 | 0.0 | 0.00 | 0.00 | 0.00 | 87 | 948.0 |
| 20260906025927 | 54 | 0 | 0.0 | 0.0 | 0.00 | 0.00 | 0.00 | 87 | 948.0 |
| 20260906025411 | 54 | 0 | 0.0 | 0.0 | 0.00 | 0.00 | 0.00 | 87 | 948.0 |
| 20260906024922 | 54 | 0 | 0.0 | 0.0 | 0.00 | 0.00 | 0.00 | 87 | 948.0 |
| 20260906024411 | 54 | 0 | 0.0 | 0.0 | 0.00 | 0.00 | 0.00 | 86 | 948.0 |
| 20260906023911 | 54 | 0 | 0.0 | 0.0 | 0.00 | 0.00 | 0.00 | 86 | 948.0 |
| 20260906023410 | 54 | 0 | 0.0 | 0.0 | 0.00 | 0.00 | 0.00 | 86 | 948.0 |
| 20260906022910 | 54 | 0 | 0.0 | 0.0 | 0.00 | 0.00 | 0.00 | 86 | 948.0 |
| 20260906022431 | 54 | 0 | 0.0 | 0.0 | 0.00 | 0.00 | 0.00 | 86 | 948.0 |
| 20260906021910 | 54 | 0 | 0.0 | 0.0 | 0.00 | 0.00 | 0.00 | 86 | 948.0 |
| 20260906021415 | 54 | 0 | 0.0 | 0.0 | 0.00 | 0.00 | 0.00 | 86 | 948.0 |
| 20260906020911 | 54 | 0 | 0.0 | 0.0 | 0.00 | 0.00 | 0.00 | 86 | 948.0 |
| 20260906020411 | 54 | 0 | 0.0 | 0.0 | 0.00 | 0.00 | 0.00 | 86 | 948.0 |
| 20260906015911 | 54 | 0 | 0.0 | 0.0 | 0.00 | 0.00 | 0.00 | 86 | 948.0 |
| 20260906015411 | 54 | 0 | 0.0 | 0.0 | 0.00 | 0.00 | 0.00 | 86 | 948.0 |
| 20260906014927 | 54 | 0 | 0.0 | 0.0 | 0.00 | 0.00 | 0.00 | 85 | 948.0 |
| 20260906014412 | 54 | 0 | 0.0 | 0.0 | 0.00 | 0.00 | 0.00 | 85 | 948.0 |
| 20260906013912 | 54 | 0 | 0.0 | 0.0 | 0.00 | 0.00 | 0.00 | 85 | 948.0 |
| 20260906013411 | 54 | 0 | 0.0 | 0.0 | 0.00 | 0.00 | 0.00 | 85 | 948.0 |
| 20260906012911 | 54 | 0 | 0.0 | 0.0 | 0.00 | 0.00 | 0.00 | 85 | 948.0 |
| 20260906012439 | 55 | 0 | 0.0 | 0.0 | 0.00 | 0.00 | 0.00 | 85 | 948.0 |
| 20260906011912 | 55 | 0 | 0.0 | 0.0 | 0.00 | 0.00 | 0.00 | 85 | 948.0 |
| 20260906011423 | 55 | 0 | 0.0 | 0.0 | 0.00 | 0.00 | 0.00 | 85 | 948.0 |
| 20260906010911 | 55 | 0 | 0.0 | 0.0 | 0.00 | 0.00 | 0.00 | 85 | 948.0 |
| 20260906010419 | 55 | 0 | 0.0 | 0.0 | 0.00 | 0.00 | 0.00 | 85 | 948.0 |
| 20260906005912 | 55 | 0 | 0.0 | 0.0 | 0.00 | 0.00 | 0.00 | 85 | 948.0 |
| 20260906005411 | 55 | 0 | 0.0 | 0.0 | 0.00 | 0.00 | 0.00 | 85 | 947.0 |
| 20260906004936 | 55 | 0 | 0.0 | 0.0 | 0.00 | 0.00 | 0.00 | 85 | 948.0 |
| 20260906004412 | 55 | 0 | 0.0 | 0.0 | 0.00 | 0.00 | 0.00 | 85 | 948.0 |
| 20260906003930 | 55 | 0 | 0.0 | 0.0 | 0.00 | 0.00 | 0.00 | 85 | 948.0 |
| 20260906003413 | 55 | 0 | 0.0 | 0.0 | 0.00 | 0.00 | 0.00 | 85 | 948.0 |
| 20260906002915 | 55 | 0 | 0.0 | 0.0 | 0.00 | 0.00 | 0.00 | 85 | 948.0 |
| 20260906002413 | 55 | 0 | 0.0 | 0.0 | 0.00 | 0.00 | 0.00 | 85 | 948.0 |
| 20260906001913 | 55 | 0 | 0.0 | 0.0 | 0.00 | 0.00 | 0.00 | 85 | 948.0 |
| 20260906001412 | 55 | 0 | 0.0 | 0.0 | 0.00 | 0.00 | 0.00 | 85 | 948.0 |
| 20260906000912 | 55 | 0 | 0.0 | 0.0 | 0.00 | 0.00 | 0.00 | 85 | 948.0 |
| 20260906000426 | 55 | 0 | 0.0 | 0.0 | 0.00 | 0.00 | 0.00 | 85 | 948.0 |
| 20260905235913 | 56 | 0 | 0.0 | 0.0 | 0.00 | 0.00 | 0.00 | 85 | 948.0 |
| 20260905235419 | 56 | 0 | 0.0 | 0.0 | 0.00 | 0.00 | 0.00 | 85 | 948.0 |
| 20260905234913 | 56 | 0 | 0.0 | 0.0 | 0.00 | 0.00 | 0.00 | 85 | 948.0 |
| 20260905234412 | 56 | 0 | 0.0 | 0.0 | 0.00 | 0.00 | 0.00 | 84 | 948.0 |
| 20260905233936 | 56 | 0 | 0.0 | 0.0 | 0.00 | 0.00 | 0.00 | 84 | 948.0 |
| 20260905233414 | 56 | 0 | 0.0 | 0.0 | 0.00 | 0.00 | 0.00 | 84 | 948.0 |
| 20260905232932 | 56 | 0 | 0.0 | 0.0 | 0.00 | 0.00 | 0.00 | 84 | 948.0 |
| 20260905232414 | 56 | 0 | 0.0 | 0.0 | 0.00 | 0.00 | 0.00 | 84 | 948.0 |
| 20260905231916 | 56 | 0 | 0.0 | 0.0 | 0.00 | 0.00 | 0.00 | 84 | 948.0 |
| 20260905231414 | 56 | 0 | 0.0 | 0.0 | 0.00 | 0.00 | 0.00 | 84 | 948.0 |
| 20260905230913 | 56 | 0 | 0.0 | 0.0 | 0.00 | 0.00 | 0.00 | 84 | 948.0 |
| 20260905230413 | 56 | 0 | 0.0 | 0.0 | 0.00 | 0.00 | 0.00 | 84 | 948.0 |
| 20260905225913 | 57 | 0 | 0.0 | 0.0 | 0.00 | 0.00 | 0.00 | 84 | 948.0 |
| 20260905225428 | 57 | 0 | 0.0 | 0.0 | 0.00 | 0.00 | 0.00 | 84 | 948.0 |
| 20260905224912 | 57 | 0 | 0.0 | 0.0 | 0.00 | 0.00 | 0.00 | 84 | 948.0 |
| 20260905224413 | 57 | 0 | 0.0 | 0.0 | 0.00 | 0.00 | 0.00 | 84 | 948.0 |
| 20260905223914 | 57 | 0 | 0.0 | 0.0 | 0.00 | 0.00 | 0.00 | 84 | 948.0 |
| 20260905223413 | 57 | 0 | 0.0 | 0.0 | 0.00 | 0.00 | 0.00 | 84 | 948.0 |
| 20260905222937 | 57 | 0 | 0.0 | 0.0 | 0.00 | 0.00 | 0.00 | 84 | 948.0 |
| 20260905222414 | 57 | 0 | 0.0 | 0.0 | 0.00 | 0.00 | 0.00 | 84 | 948.0 |
| 20260905221921 | 57 | 0 | 0.0 | 0.0 | 0.00 | 0.00 | 0.00 | 84 | 948.0 |
| 20260905221413 | 57 | 0 | 0.0 | 0.0 | 0.00 | 0.00 | 0.00 | 84 | 948.0 |
| 20260905220914 | 57 | 0 | 0.0 | 0.0 | 0.00 | 0.00 | 0.00 | 84 | 948.0 |
| 20260905220413 | 57 | 0 | 0.0 | 0.0 | 0.00 | 0.00 | 0.00 | 84 | 948.0 |
| 20260905215914 | 57 | 0 | 0.0 | 0.0 | 0.00 | 0.00 | 0.00 | 84 | 948.0 |
| 20260905215432 | 57 | 0 | 0.0 | 0.0 | 0.00 | 0.00 | 0.00 | 83 | 948.0 |
| 20260905214915 | 57 | 0 | 0.0 | 0.0 | 0.00 | 0.00 | 0.00 | 83 | 948.0 |
| 20260905214426 | 58 | 0 | 0.0 | 0.0 | 0.00 | 0.00 | 0.00 | 83 | 948.0 |
| 20260905213915 | 58 | 0 | 0.0 | 0.0 | 0.00 | 0.00 | 0.00 | 83 | 948.0 |
| 20260905213415 | 58 | 0 | 0.0 | 0.0 | 0.00 | 0.00 | 0.00 | 83 | 948.0 |
| 20260905212944 | 58 | 0 | 0.0 | 0.0 | 0.00 | 0.00 | 0.00 | 83 | 948.0 |
| 20260905212415 | 58 | 0 | 0.0 | 0.0 | 0.00 | 0.00 | 0.00 | 83 | 948.0 |
| 20260905211936 | 58 | 0 | 0.0 | 0.0 | 0.00 | 0.00 | 0.00 | 83 | 948.0 |
| 20260905211415 | 58 | 0 | 0.0 | 0.0 | 0.00 | 0.00 | 0.00 | 83 | 948.0 |
| 20260905210921 | 58 | 0 | 0.0 | 0.0 | 0.00 | 0.00 | 0.00 | 83 | 948.0 |
| 20260905210418 | 59 | 0 | 0.0 | 0.0 | 0.00 | 0.00 | 0.00 | 83 | 948.0 |
| 20260905205915 | 59 | 0 | 0.0 | 0.0 | 0.00 | 0.00 | 0.00 | 83 | 948.0 |
| 20260905205415 | 59 | 0 | 0.0 | 0.0 | 0.00 | 0.00 | 0.00 | 83 | 948.0 |
| 20260905204916 | 59 | 0 | 0.0 | 0.0 | 0.00 | 0.00 | 0.00 | 83 | 948.0 |
| 20260905204433 | 59 | 0 | 0.0 | 1.7 | 0.00 | 0.00 | 0.00 | 83 | 948.0 |
| 20260905203932 | 59 | 0 | 0.0 | 1.7 | 0.00 | 0.00 | 0.00 | 83 | 948.0 |
| 20260905203428 | 59 | 0 | 0.0 | 1.7 | 0.00 | 0.00 | 0.00 | 83 | 948.0 |
| 20260905202916 | 59 | 0 | 0.0 | 0.0 | 0.00 | 0.00 | 0.00 | 83 | 948.0 |
| 20260905202415 | 59 | 0 | 0.0 | 0.0 | 0.00 | 0.00 | 0.00 | 83 | 948.0 |
| 20260905201916 | 59 | 0 | 0.0 | 0.0 | 0.00 | 0.00 | 0.00 | 83 | 948.0 |
| 20260905201444 | 59 | 0 | 0.0 | 0.0 | 0.00 | 0.00 | 0.00 | 83 | 947.0 |
| 20260905200939 | 59 | 0 | 0.0 | 0.0 | 0.00 | 0.00 | 0.00 | 83 | 947.0 |
| 20260905200416 | 59 | 0 | 0.0 | 0.0 | 0.00 | 0.00 | 0.00 | 83 | 947.0 |
| 20260905195923 | 59 | 0 | 0.0 | 0.0 | 0.00 | 0.00 | 0.00 | 83 | 947.0 |
| 20260905195417 | 59 | 0 | 0.0 | 0.0 | 0.00 | 0.00 | 0.00 | 83 | 947.0 |
| 20260905194956 | 59 | 0 | 0.0 | 0.0 | 0.00 | 0.00 | 0.00 | 82 | 947.0 |
| 20260905194417 | 59 | 0 | 0.0 | 0.0 | 0.00 | 0.00 | 0.00 | 82 | 947.0 |
| 20260905193916 | 59 | 0 | 0.0 | 0.0 | 0.00 | 0.00 | 0.00 | 82 | 947.0 |
| 20260905193433 | 60 | 0 | 0.0 | 0.0 | 0.00 | 0.00 | 0.00 | 82 | 947.0 |
| 20260905192917 | 60 | 0 | 0.0 | 0.0 | 0.00 | 0.00 | 0.00 | 82 | 947.0 |
| 20260905192506 | 60 | 0 | 0.0 | 0.0 | 0.00 | 0.00 | 0.00 | 82 | 947.0 |
| 20260905191918 | 60 | 0 | 0.0 | 0.0 | 0.00 | 0.00 | 0.00 | 82 | 947.0 |
| 20260905191418 | 60 | 0 | 0.0 | 0.0 | 0.00 | 0.00 | 0.00 | 82 | 947.0 |
| 20260905190945 | 60 | 0 | 0.0 | 0.0 | 0.00 | 0.00 | 0.00 | 82 | 947.0 |
| 20260905190417 | 60 | 0 | 0.0 | 0.0 | 0.00 | 0.00 | 0.00 | 82 | 947.0 |
| 20260905190017 | 60 | 0 | 0.0 | 0.0 | 0.00 | 0.00 | 0.00 | 82 | 948.0 |
| 20260905185417 | 60 | 0 | 0.0 | 0.0 | 0.00 | 0.00 | 0.00 | 82 | 947.0 |
| 20260905184922 | 60 | 0 | 0.0 | 0.0 | 0.00 | 0.00 | 0.00 | 82 | 948.0 |
| 20260905184417 | 60 | 0 | 0.0 | 1.7 | 0.00 | 0.00 | 0.00 | 82 | 948.0 |
| 20260905183917 | 60 | 0 | 0.0 | 1.7 | 0.00 | 0.00 | 0.00 | 81 | 948.0 |
| 20260905183417 | 59 | 0 | 1.7 | 1.7 | 0.00 | 0.00 | 0.00 | 81 | 948.0 |
| 20260905182916 | 59 | 0 | 0.0 | 0.0 | 0.00 | 0.00 | 0.00 | 81 | 947.0 |
| 20260905182435 | 60 | 0 | 0.0 | 0.0 | 0.00 | 0.00 | 0.00 | 81 | 947.0 |
| 20260905181917 | 60 | 0 | 0.0 | 0.0 | 0.00 | 0.00 | 0.00 | 80 | 947.0 |
| 20260905181419 | 60 | 0 | 0.0 | 0.0 | 0.00 | 0.00 | 0.00 | 80 | 947.0 |
| 20260905180918 | 60 | 0 | 0.0 | 0.0 | 0.00 | 0.00 | 0.00 | 80 | 947.0 |
| 20260905180416 | 60 | 0 | 0.0 | 0.0 | 0.00 | 0.00 | 0.00 | 80 | 947.0 |
| 20260905175918 | 60 | 0 | 0.0 | 0.0 | 0.00 | 0.00 | 0.00 | 79 | 947.0 |
| 20260905175416 | 60 | 0 | 0.0 | 0.0 | 0.00 | 0.00 | 0.00 | 79 | 947.0 |
| 20260905174932 | 60 | 0 | 0.0 | 0.0 | 0.00 | 0.00 | 0.00 | 79 | 947.0 |
| 20260905174417 | 60 | 0 | 0.0 | 0.0 | 0.00 | 0.00 | 0.00 | 79 | 947.0 |
| 20260905173929 | 60 | 0 | 0.0 | 0.0 | 0.00 | 0.00 | 0.00 | 78 | 946.0 |
| 20260905173417 | 60 | 0 | 0.0 | 0.0 | 0.00 | 0.00 | 0.00 | 78 | 946.0 |
| 20260905172917 | 60 | 0 | 0.0 | 0.0 | 0.00 | 0.00 | 0.00 | 78 | 946.0 |
| 20260905172416 | 60 | 0 | 0.0 | 0.0 | 0.00 | 0.00 | 0.00 | 78 | 946.0 |
| 20260905171917 | 60 | 0 | 0.0 | 0.0 | 0.00 | 0.00 | 0.00 | 78 | 946.0 |
| 20260905171440 | 60 | 0 | 0.0 | 0.0 | 0.00 | 0.00 | 0.00 | 78 | 946.0 |
| 20260905170917 | 60 | 0 | 0.0 | 0.0 | 0.00 | 0.00 | 0.00 | 78 | 946.0 |
| 20260905170424 | 61 | 0 | 0.0 | 0.0 | 0.00 | 0.00 | 0.00 | 78 | 946.0 |
| 20260905165917 | 61 | 0 | 0.0 | 0.0 | 0.00 | 0.00 | 0.00 | 78 | 946.0 |
| 20260905165419 | 61 | 0 | 0.0 | 0.0 | 0.00 | 0.00 | 0.00 | 78 | 946.0 |
| 20260905164917 | 61 | 0 | 0.0 | 0.0 | 0.00 | 0.00 | 0.00 | 77 | 946.0 |
| 20260905164418 | 62 | 0 | 0.0 | 0.0 | 0.00 | 0.00 | 0.00 | 77 | 946.0 |
| 20260905163938 | 62 | 0 | 0.0 | 0.0 | 0.00 | 0.00 | 0.00 | 77 | 946.0 |
| 20260905163418 | 62 | 0 | 0.0 | 0.0 | 0.00 | 0.00 | 0.00 | 77 | 946.0 |
| 20260905162933 | 62 | 0 | 0.0 | 0.9 | 0.00 | 0.00 | 0.00 | 77 | 946.0 |
| 20260905162418 | 63 | 0 | 0.0 | 1.7 | 0.00 | 0.00 | 0.00 | 77 | 946.0 |
| 20260905161916 | 63 | 0 | 0.0 | 1.7 | 0.00 | 0.00 | 0.00 | 76 | 946.0 |
| 20260905161417 | 63 | 0 | 1.7 | 1.7 | 0.00 | 0.00 | 0.00 | 76 | 946.0 |
| 20260905160916 | 63 | 0 | 0.0 | 0.0 | 0.00 | 0.00 | 0.00 | 75 | 946.0 |
| 20260905160445 | 63 | 0 | 0.0 | 0.0 | 0.00 | 0.00 | 0.00 | 75 | 946.0 |
| 20260905155916 | 64 | 0 | 0.0 | 0.0 | 0.00 | 0.00 | 0.00 | 75 | 946.0 |
| 20260905155430 | 64 | 0 | 0.0 | 0.0 | 0.00 | 0.00 | 0.00 | 75 | 946.0 |
| 20260905154918 | 64 | 0 | 0.0 | 0.0 | 0.00 | 0.00 | 0.00 | 75 | 946.0 |
| 20260905154417 | 64 | 0 | 0.0 | 0.0 | 0.00 | 0.00 | 0.00 | 74 | 946.0 |
| 20260905153916 | 64 | 0 | 0.0 | 0.0 | 0.00 | 0.00 | 0.00 | 74 | 945.0 |
| 20260905153417 | 64 | 0 | 0.0 | 0.0 | 0.00 | 0.00 | 0.00 | 73 | 945.0 |
| 20260905152940 | 64 | 0 | 0.0 | 0.0 | 0.00 | 0.00 | 0.00 | 73 | 945.0 |
| 20260905152416 | 64 | 0 | 0.0 | 0.0 | 0.00 | 0.00 | 0.00 | 71 | 945.0 |
| 20260905151925 | 64 | 0 | 0.0 | 0.0 | 0.00 | 0.00 | 0.00 | 70 | 945.0 |
| 20260905151416 | 64 | 0 | 0.0 | 0.0 | 0.00 | 0.00 | 0.00 | 70 | 945.0 |
| 20260905150918 | 65 | 0 | 0.0 | 0.0 | 0.00 | 0.00 | 0.00 | 69 | 946.0 |
| 20260905150416 | 65 | 0 | 0.0 | 0.0 | 0.00 | 0.00 | 0.00 | 68 | 946.0 |
| 20260905145917 | 65 | 0 | 0.0 | 0.0 | 0.00 | 0.00 | 0.00 | 68 | 946.0 |
| 20260905145434 | 66 | 0 | 0.0 | 0.0 | 0.00 | 0.00 | 0.00 | 67 | 946.0 |
| 20260905144916 | 66 | 0 | 0.0 | 0.0 | 0.00 | 0.00 | 0.00 | 67 | 945.0 |
| 20260905144428 | 66 | 0 | 0.0 | 0.0 | 0.00 | 0.00 | 0.00 | 67 | 945.0 |
| 20260905143917 | 66 | 0 | 0.0 | 1.7 | 0.00 | 0.00 | 0.00 | 68 | 945.0 |
| 20260905143417 | 67 | 0 | 0.0 | 1.7 | 0.00 | 0.00 | 0.00 | 68 | 945.0 |
| 20260905142918 | 67 | 0 | 0.0 | 3.5 | 0.00 | 0.00 | 0.00 | 68 | 946.0 |
| 20260905142416 | 67 | 0 | 0.0 | 3.5 | 0.00 | 0.00 | 0.00 | 68 | 945.0 |
| 20260905141941 | 67 | 338 | 0.0 | 3.5 | 0.00 | 0.00 | 0.00 | 68 | 945.0 |
| 20260905141417 | 67 | 338 | 3.5 | 3.5 | 0.00 | 0.00 | 0.00 | 68 | 945.0 |
| 20260905140924 | 67 | 338 | 0.9 | 3.5 | 0.00 | 0.00 | 0.00 | 68 | 946.0 |
| 20260905140416 | 67 | 338 | 0.0 | 3.5 | 0.00 | 0.00 | 0.00 | 68 | 945.0 |
| 20260905135921 | 67 | 338 | 1.7 | 3.5 | 0.00 | 0.00 | 0.00 | 68 | 945.0 |
| 20260905135416 | 67 | 0 | 2.6 | 3.5 | 0.00 | 0.00 | 0.00 | 69 | 945.0 |
| 20260905134916 | 67 | 0 | 0.0 | 1.7 | 0.00 | 0.00 | 0.00 | 70 | 945.0 |
| 20260905134437 | 67 | 0 | 0.0 | 4.3 | 0.00 | 0.00 | 0.00 | 70 | 944.0 |
| 20260905133916 | 67 | 0 | 0.0 | 4.3 | 0.00 | 0.00 | 0.00 | 70 | 945.0 |
| 20260905133433 | 67 | 0 | 0.0 | 4.3 | 0.00 | 0.00 | 0.00 | 70 | 945.0 |
| 20260905132917 | 67 | 0 | 3.5 | 4.3 | 0.00 | 0.00 | 0.00 | 70 | 945.0 |
| 20260905132417 | 67 | 0 | 4.3 | 4.3 | 0.00 | 0.00 | 0.00 | 69 | 945.0 |
| 20260905131916 | 68 | 0 | 0.0 | 2.6 | 0.00 | 0.00 | 0.00 | 69 | 945.0 |
| 20260905131416 | 68 | 0 | 1.7 | 2.6 | 0.00 | 0.00 | 0.00 | 69 | 945.0 |
| 20260905130944 | 68 | 0 | 0.0 | 2.6 | 0.00 | 0.00 | 0.00 | 68 | 945.0 |
| 20260905130417 | 68 | 0 | 1.7 | 3.5 | 0.00 | 0.00 | 0.00 | 68 | 945.0 |
| 20260905125929 | 68 | 338 | 0.0 | 3.5 | 0.00 | 0.00 | 0.00 | 67 | 944.0 |
| 20260905125416 | 68 | 0 | 1.7 | 4.3 | 0.00 | 0.00 | 0.00 | 65 | 945.0 |
| 20260905124916 | 70 | 0 | 3.5 | 5.2 | 0.00 | 0.00 | 0.00 | 63 | 945.0 |
| 20260905124418 | 72 | 0 | 4.3 | 6.1 | 0.00 | 0.00 | 0.00 | 60 | 945.0 |
| 20260905123917 | 74 | 0 | 0.9 | 6.1 | 0.00 | 0.00 | 0.00 | 56 | 945.0 |
| 20260905123440 | 76 | 22 | 5.2 | 6.1 | 0.00 | 0.00 | 0.00 | 53 | 945.0 |
| 20260905122916 | 77 | 338 | 3.5 | 5.2 | 0.00 | 0.00 | 0.00 | 52 | 945.0 |